TimeEST,TemperatureF,Dew PointF,Humidity,Sea Level PressureIn,VisibilityMPH,Wind Direction,Wind SpeedMPH,Gust SpeedMPH,PrecipitationIn,Events,Conditions,WindDirDegrees,DateUTC
12:15 AM,33.8,30.2,87,30.39,7.0,East,4.6,-,N/A,,Clear,90,2012-11-19 05:15:00
12:55 AM,32.0,30.2,93,30.39,7.0,Calm,Calm,-,N/A,,Clear,0,2012-11-19 05:55:00
1:15 AM,32.0,30.2,93,30.38,5.0,ENE,3.5,-,N/A,,Clear,70,2012-11-19 06:15:00
1:55 AM,32.0,30.2,93,30.37,5.0,Calm,Calm,-,N/A,,Clear,0,2012-11-19 06:55:00
2:15 AM,32.0,30.2,93,30.37,5.0,Calm,Calm,-,N/A,,Clear,0,2012-11-19 07:15:00
2:35 AM,32.0,28.4,87,30.38,5.0,Calm,Calm,-,N/A,,Clear,0,2012-11-19 07:35:00
2:55 AM,32.0,30.2,93,30.37,4.0,Calm,Calm,-,N/A,,Clear,0,2012-11-19 07:55:00
3:15 AM,32.0,28.4,87,30.37,4.0,Calm,Calm,-,N/A,,Clear,0,2012-11-19 08:15:00
3:35 AM,30.2,28.4,93,30.37,4.0,Calm,Calm,-,N/A,,Clear,0,2012-11-19 08:35:00
3:55 AM,32.0,28.4,87,30.36,4.0,Calm,Calm,-,N/A,,Clear,0,2012-11-19 08:55:00
4:15 AM,30.2,28.4,93,30.35,4.0,Calm,Calm,-,N/A,,Clear,0,2012-11-19 09:15:00
4:35 AM,30.2,28.4,93,30.35,4.0,Calm,Calm,-,N/A,,Clear,0,2012-11-19 09:35:00
4:55 AM,32.0,30.2,93,30.35,5.0,Calm,Calm,-,N/A,,Clear,0,2012-11-19 09:55:00
5:15 AM,32.0,30.2,93,30.35,5.0,Calm,Calm,-,N/A,,Clear,0,2012-11-19 10:15:00
5:35 AM,32.0,28.4,87,30.35,4.0,ENE,3.5,-,N/A,,Clear,70,2012-11-19 10:35:00
5:55 AM,28.4,26.6,93,30.35,3.0,Calm,Calm,-,N/A,,Clear,0,2012-11-19 10:55:00
6:15 AM,30.2,28.4,93,30.35,5.0,Calm,Calm,-,N/A,,Clear,0,2012-11-19 11:15:00
6:35 AM,30.2,28.4,93,30.35,4.0,Calm,Calm,-,N/A,,Clear,0,2012-11-19 11:35:00
6:55 AM,30.2,26.6,86,30.34,3.0,Calm,Calm,-,N/A,,Clear,0,2012-11-19 11:55:00
7:15 AM,28.4,26.6,93,30.35,2.5,Calm,Calm,-,N/A,,Clear,0,2012-11-19 12:15:00
7:35 AM,30.2,28.4,93,30.35,4.0,Calm,Calm,-,N/A,,Clear,0,2012-11-19 12:35:00
7:55 AM,30.2,28.4,93,30.35,2.5,Calm,Calm,-,N/A,,Clear,0,2012-11-19 12:55:00
8:15 AM,30.2,28.4,93,30.35,2.0,Calm,Calm,-,N/A,,Clear,0,2012-11-19 13:15:00
8:35 AM,32.0,30.2,93,30.35,2.0,East,3.5,-,N/A,,Clear,90,2012-11-19 13:35:00
8:55 AM,32.0,30.2,93,30.35,3.0,Calm,Calm,-,N/A,,Clear,0,2012-11-19 13:55:00
9:15 AM,33.8,32.0,93,30.35,3.0,Calm,Calm,-,N/A,,Clear,0,2012-11-19 14:15:00
9:55 AM,37.4,32.0,81,30.35,7.0,ENE,3.5,-,N/A,,Clear,70,2012-11-19 14:55:00
10:15 AM,37.4,32.0,81,30.34,7.0,ENE,3.5,-,N/A,,Clear,70,2012-11-19 15:15:00
10:35 AM,41.0,32.0,70,30.35,7.0,Calm,Calm,-,N/A,,Clear,0,2012-11-19 15:35:00
10:55 AM,41.0,32.0,70,30.35,10.0,Calm,Calm,-,N/A,,Clear,0,2012-11-19 15:55:00
11:15 AM,42.8,32.0,66,30.35,10.0,Calm,Calm,-,N/A,,Clear,0,2012-11-19 16:15:00
11:35 AM,44.6,32.0,61,30.33,10.0,Calm,Calm,-,N/A,,Clear,0,2012-11-19 16:35:00
11:55 AM,46.4,32.0,57,30.33,10.0,Calm,Calm,-,N/A,,Clear,0,2012-11-19 16:55:00
12:15 PM,50.0,32.0,50,30.31,10.0,Calm,Calm,-,N/A,,Clear,0,2012-11-19 17:15:00
12:35 PM,50.0,32.0,50,30.30,10.0,Calm,Calm,-,N/A,,Clear,0,2012-11-19 17:35:00
12:55 PM,51.8,32.0,47,30.29,10.0,Calm,Calm,-,N/A,,Clear,0,2012-11-19 17:55:00
1:15 PM,53.6,32.0,44,30.28,10.0,Calm,Calm,-,N/A,,Clear,0,2012-11-19 18:15:00
1:35 PM,53.6,33.8,47,30.28,10.0,Calm,Calm,-,N/A,,Clear,0,2012-11-19 18:35:00
1:55 PM,53.6,32.0,44,30.27,10.0,Calm,Calm,-,N/A,,Clear,0,2012-11-19 18:55:00
2:15 PM,53.6,33.8,47,30.27,10.0,Calm,Calm,-,N/A,,Clear,0,2012-11-19 19:15:00
2:35 PM,53.6,32.0,44,30.25,10.0,East,4.6,-,N/A,,Clear,100,2012-11-19 19:35:00
2:55 PM,53.6,32.0,44,30.25,10.0,ESE,3.5,-,N/A,,Clear,120,2012-11-19 19:55:00
3:15 PM,55.4,32.0,41,30.25,10.0,Calm,Calm,-,N/A,,Clear,0,2012-11-19 20:15:00
3:35 PM,53.6,32.0,44,30.24,10.0,Calm,Calm,-,N/A,,Clear,0,2012-11-19 20:35:00
3:55 PM,53.6,32.0,44,30.24,10.0,Calm,Calm,-,N/A,,Clear,0,2012-11-19 20:55:00
4:15 PM,53.6,32.0,44,30.24,10.0,Calm,Calm,-,N/A,,Clear,0,2012-11-19 21:15:00
4:35 PM,53.6,32.0,44,30.24,10.0,Calm,Calm,-,N/A,,Clear,0,2012-11-19 21:35:00
4:55 PM,51.8,32.0,47,30.24,10.0,Calm,Calm,-,N/A,,Clear,0,2012-11-19 21:55:00
5:15 PM,50.0,33.8,54,30.23,10.0,Calm,Calm,-,N/A,,Clear,0,2012-11-19 22:15:00
5:35 PM,48.2,33.8,58,30.23,10.0,Calm,Calm,-,N/A,,Clear,0,2012-11-19 22:35:00
5:55 PM,46.4,33.8,62,30.23,10.0,Calm,Calm,-,N/A,,Scattered Clouds,0,2012-11-19 22:55:00
6:15 PM,46.4,33.8,62,30.22,10.0,ESE,3.5,-,N/A,,Mostly Cloudy,110,2012-11-19 23:15:00
6:35 PM,46.4,33.8,62,30.22,10.0,East,4.6,-,N/A,,Mostly Cloudy,100,2012-11-19 23:35:00
6:55 PM,46.4,33.8,62,30.22,10.0,Calm,Calm,-,N/A,,Scattered Clouds,0,2012-11-19 23:55:00
7:15 PM,46.4,33.8,62,30.22,10.0,Calm,Calm,-,N/A,,Scattered Clouds,0,2012-11-20 00:15:00
7:35 PM,46.4,33.8,62,30.21,10.0,ESE,3.5,-,N/A,,Mostly Cloudy,110,2012-11-20 00:35:00
7:55 PM,50.0,32.0,50,30.21,10.0,Calm,Calm,-,N/A,,Overcast,0,2012-11-20 00:55:00
8:15 PM,46.4,32.0,57,30.21,10.0,ESE,3.5,-,N/A,,Mostly Cloudy,110,2012-11-20 01:15:00
8:35 PM,50.0,32.0,50,30.21,10.0,Calm,Calm,-,N/A,,Scattered Clouds,0,2012-11-20 01:35:00
8:55 PM,46.4,32.0,57,30.21,10.0,Calm,Calm,-,N/A,,Scattered Clouds,0,2012-11-20 01:55:00
9:15 PM,46.4,32.0,57,30.20,10.0,Calm,Calm,-,N/A,,Scattered Clouds,0,2012-11-20 02:15:00
9:35 PM,46.4,32.0,57,30.20,10.0,Calm,Calm,-,N/A,,Clear,0,2012-11-20 02:35:00
9:55 PM,44.6,32.0,61,30.19,10.0,Calm,Calm,-,N/A,,Clear,0,2012-11-20 02:55:00
10:15 PM,44.6,32.0,61,30.19,10.0,SE,3.5,-,N/A,,Clear,130,2012-11-20 03:15:00
10:35 PM,46.4,32.0,57,30.17,10.0,SE,3.5,-,N/A,,Scattered Clouds,130,2012-11-20 03:35:00
10:55 PM,48.2,32.0,54,30.17,10.0,Calm,Calm,-,N/A,,Clear,0,2012-11-20 03:55:00
11:15 PM,46.4,32.0,57,30.17,10.0,Calm,Calm,-,N/A,,Clear,0,2012-11-20 04:15:00
11:55 PM,44.6,32.0,61,30.17,10.0,Calm,Calm,-,N/A,,Overcast,0,2012-11-20 04:55:00